Location: Wanzleben
(52.0609°N, 11.4408°E)
Time: 18:24:26
(UTC+00:00)

COSMOS 2406 - Pass Details

Date: 22 January 2021
Orbit: 841 x 865 km, 71.0° (Epoch: 05 March)

Event Time Altitude Azimuth Distance (km) Brightness Sun altitude
Rises 17:00:17 0° 329° (NNW) 3,460 6.6 -11.5°
Reaches altitude 10° 17:03:02 10° 340° (NNW) 2,520 5.7 -11.9°
Maximum altitude 17:08:12 32° 43° (NE) 1,449 4.0 -12.6°
Enters shadow 17:12:07 16° 98° (E) 2,129 4.7 -13.2°
